Change the Weather History Date:

Friday, March 21, 2014

  Actual Average Record
Temperature  
Mean Temperature 26 °F -  
Max Temperature 35 °F 39 °F 84 °F (2012)
Min Temperature 16 °F 22 °F 12 °F (2002)
Degree Days  
Heating Degree Days 40    
Moisture  
Dew Point 20 °F    
Average Humidity 74    
Maximum Humidity 94    
Minimum Humidity 46    
Precipitation  
Precipitation 0.00 in - - ()
Sea Level Pressure  
Sea Level Pressure 29.98 in    
Wind  
Wind Speed 5 mph (SE)    
Max Wind Speed 13 mph    
Max Gust Speed 18 mph    
Visibility 10 miles    
Events Snow    
Averages and records for this station are not official NWS values.
T = Trace of Precipitation, MM = Missing Value Source: NWS Daily Summary

Daily Weather History Graph

Daily Weather History Graph

Search for Another Location

Airport or City:

Trip Planner

Search our weather history database for the weather conditions in past years. The results will help you decide how hot, cold, wet, or windy it might be!

Date:

Astronomy

Mar. 21, 2014 Rise Set
Actual Time 7:34 AM EDT 7:47 PM EDT
Civil Twilight 7:05 AM EDT 8:16 PM EDT
Nautical Twilight 6:31 AM EDT 8:50 PM EDT
Astronomical Twilight 5:56 AM EDT 9:25 PM EDT
Moon 12:14 AM EDT (3/21) 10:15 AM EDT (3/21)
Length of Visible Light 13h 10m
Length of Day
12h 12m
Waning Gibbous, 75% of the Moon is Illuminated
Mar 21
Waning Gibbous
Mar 23
Last Quarter
Mar 30
New
Apr 7
First Quarter
Apr 15
Full

Hourly Weather History & Observations

Time (EDT) Temp. Windchill Dew Point Humidity Pressure Visibility Wind Dir Wind Speed Gust Speed Precip Events Conditions
12:14 AM 23.2 °F 15.0 °F 17.1 °F 77% 30.01 in 10.0 mi WSW 6.9 mph - N/A   Clear
12:34 AM 22.8 °F 14.5 °F 17.4 °F 80% 30.02 in 10.0 mi West 6.9 mph - N/A   Clear
12:53 AM 22.6 °F 16.5 °F 16.7 °F 78% 30.02 in 10.0 mi West 4.6 mph - N/A   Clear
1:14 AM 22.8 °F 14.5 °F 16.7 °F 77% 30.02 in 10.0 mi West 6.9 mph - N/A   Clear
1:34 AM 23.9 °F 18.0 °F 16.5 °F 73% 30.02 in 10.0 mi WNW 4.6 mph - N/A   Clear
1:53 AM 22.1 °F - 16.5 °F 79% 30.03 in 10.0 mi Calm Calm - N/A   Clear
2:14 AM 23.7 °F - 17.1 °F 76% 30.03 in 10.0 mi Calm Calm - N/A   Clear
2:34 AM 23.2 °F - 17.2 °F 78% 30.03 in 10.0 mi Calm Calm - N/A   Clear
2:53 AM 20.1 °F 13.6 °F 15.6 °F 83% 30.03 in 10.0 mi WSW 4.6 mph - N/A   Clear
3:14 AM 19.2 °F 11.3 °F 15.8 °F 87% 30.03 in 10.0 mi SW 5.8 mph - N/A   Clear
3:34 AM 19.2 °F 12.5 °F 15.8 °F 87% 30.03 in 10.0 mi SW 4.6 mph - N/A   Clear
3:53 AM 19.2 °F 12.5 °F 16.2 °F 88% 30.03 in 10.0 mi WSW 4.6 mph - N/A   Clear
4:14 AM 19.4 °F 12.8 °F 16.3 °F 88% 30.03 in 10.0 mi SW 4.6 mph - N/A   Clear
4:34 AM 19.0 °F 13.9 °F 15.8 °F 87% 30.03 in 10.0 mi SW 3.5 mph - N/A   Clear
4:53 AM 18.7 °F - 15.6 °F 88% 30.03 in 10.0 mi Calm Calm - N/A   Clear
5:14 AM 18.5 °F - 15.8 °F 89% 30.03 in 10.0 mi Calm Calm - N/A   Clear
5:34 AM 17.2 °F 11.9 °F 14.0 °F 87% 30.03 in 10.0 mi WSW 3.5 mph - N/A   Clear
5:53 AM 17.6 °F - 14.7 °F 88% 30.03 in 10.0 mi Calm Calm - N/A   Clear
6:14 AM 17.6 °F - 14.7 °F 88% 30.03 in 10.0 mi Calm Calm - N/A   Clear
6:34 AM 17.1 °F 11.7 °F 14.0 °F 88% 30.04 in 10.0 mi SSW 3.5 mph - N/A   Clear
6:53 AM 16.7 °F - 14.0 °F 89% 30.04 in 10.0 mi Calm Calm - N/A   Clear
7:14 AM 16.9 °F - 14.2 °F 89% 30.04 in 10.0 mi Calm Calm - N/A   Clear
7:34 AM 17.1 °F - 14.2 °F 88% 30.04 in 10.0 mi Calm Calm - N/A   Clear
7:53 AM 16.2 °F - 13.1 °F 88% 30.05 in 10.0 mi Calm Calm - N/A   Clear
8:14 AM 17.4 °F - 14.4 °F 88% 30.06 in 10.0 mi Calm Calm - N/A   Clear
8:34 AM 18.5 °F - 15.8 °F 89% 30.07 in 10.0 mi Calm Calm - N/A   Clear
8:54 AM 20.7 °F - 17.2 °F 87% 30.07 in 10.0 mi Calm Calm - N/A   Clear
9:14 AM 23.4 °F - 19.4 °F 85% 30.07 in 10.0 mi Calm Calm - N/A   Clear
9:34 AM 25.7 °F - 20.5 °F 81% 30.06 in 10.0 mi Calm Calm - N/A   Clear
9:54 AM 27.5 °F - 20.3 °F 74% 30.06 in 10.0 mi Calm Calm - N/A   Clear
10:14 AM 28.9 °F - 20.3 °F 70% 30.06 in 10.0 mi Calm Calm - N/A   Clear
10:34 AM 30.6 °F - 18.7 °F 61% 30.06 in 10.0 mi Calm Calm - N/A   Clear
10:54 AM 31.8 °F - 16.0 °F 52% 30.05 in 10.0 mi Calm Calm - N/A   Clear
11:14 AM 32.4 °F - 17.1 °F 53% 30.05 in 10.0 mi Calm Calm - N/A   Clear
11:33 AM 33.1 °F 27.7 °F 15.8 °F 49% 30.05 in 10.0 mi East 5.8 mph - N/A   Clear
11:54 AM 33.3 °F 28.9 °F 14.2 °F 46% 30.07 in 10.0 mi ESE 4.6 mph - N/A   Clear
12:14 PM 33.8 °F 27.7 °F 16.3 °F 49% 30.06 in 10.0 mi ESE 6.9 mph - N/A   Clear
12:33 PM 33.8 °F 25.8 °F 16.0 °F 48% 30.06 in 10.0 mi ESE 10.4 mph - N/A   Clear
12:54 PM 34.0 °F 26.6 °F 16.3 °F 49% 30.05 in 10.0 mi ESE 9.2 mph - N/A   Clear
1:14 PM 34.5 °F 27.3 °F 17.2 °F 49% 30.05 in 10.0 mi ESE 9.2 mph - N/A   Clear
1:33 PM 34.7 °F 27.5 °F 17.8 °F 50% 30.04 in 10.0 mi ESE 9.2 mph - N/A   Clear
1:54 PM 34.7 °F 26.9 °F 18.5 °F 52% 30.04 in 10.0 mi ESE 10.4 mph - N/A   Clear
2:14 PM 34.5 °F 26.2 °F 19.8 °F 55% 30.02 in 10.0 mi ESE 11.5 mph - N/A   Clear
2:33 PM 34.9 °F 27.7 °F 19.9 °F 55% 30.01 in 10.0 mi ESE 9.2 mph - N/A   Clear
2:54 PM 34.7 °F 27.5 °F 19.9 °F 55% 30.00 in 10.0 mi ESE 9.2 mph - N/A   Clear
3:14 PM 35.1 °F 26.9 °F 19.4 °F 53% 30.00 in 10.0 mi ESE 11.5 mph - N/A   Clear
3:33 PM 34.9 °F 27.1 °F 20.7 °F 56% 29.99 in 10.0 mi ESE 10.4 mph - N/A   Clear
3:54 PM 34.0 °F 25.5 °F 21.2 °F 60% 29.98 in 10.0 mi ESE 11.5 mph - N/A   Clear
4:14 PM 33.3 °F 25.1 °F 22.5 °F 65% 29.97 in 10.0 mi ESE 10.4 mph - N/A   Clear
4:33 PM 32.7 °F 25.7 °F 23.5 °F 69% 29.97 in 10.0 mi ESE 8.1 mph - N/A   Clear
4:54 PM 33.6 °F 25.0 °F 25.0 °F 71% 29.95 in 10.0 mi ESE 11.5 mph - N/A   Clear
5:14 PM 33.8 °F 26.4 °F 24.8 °F 70% 29.94 in 10.0 mi ESE 9.2 mph - N/A   Clear
5:33 PM 32.9 °F 25.3 °F 24.8 °F 72% 29.92 in 10.0 mi ESE 9.2 mph - N/A   Clear
5:54 PM 32.5 °F 23.7 °F 24.4 °F 72% 29.90 in 10.0 mi ESE 11.5 mph - N/A   Scattered Clouds
6:14 PM 32.0 °F 22.5 °F 24.3 °F 73% 29.90 in 10.0 mi ESE 12.7 mph 18.4 mph N/A   Mostly Cloudy
6:33 PM 32.4 °F 24.6 °F 23.4 °F 69% 29.90 in 10.0 mi ESE 9.2 mph 17.3 mph N/A   Scattered Clouds
6:54 PM 32.0 °F 24.2 °F 23.5 °F 71% 29.90 in 10.0 mi SE 9.2 mph - N/A   Scattered Clouds
7:14 PM 31.8 °F 23.9 °F 24.4 °F 74% 29.90 in 10.0 mi ESE 9.2 mph - N/A   Mostly Cloudy
7:33 PM 31.8 °F 25.4 °F 24.6 °F 75% 29.90 in 10.0 mi SE 6.9 mph - N/A   Scattered Clouds
7:54 PM 31.6 °F 23.7 °F 24.3 °F 74% 29.90 in 10.0 mi SE 9.2 mph - N/A   Scattered Clouds
8:14 PM 31.6 °F 24.4 °F 24.8 °F 76% 29.88 in 10.0 mi ESE 8.1 mph - N/A   Mostly Cloudy
8:34 PM 32.0 °F 26.4 °F 25.3 °F 76% 29.88 in 10.0 mi SE 5.8 mph - N/A   Scattered Clouds
8:54 PM 32.0 °F 25.6 °F 25.2 °F 76% 29.86 in 10.0 mi ESE 6.9 mph - N/A   Mostly Cloudy
9:14 PM 32.0 °F 24.8 °F 25.5 °F 77% 29.85 in 10.0 mi ESE 8.1 mph - N/A   Mostly Cloudy
9:34 PM 32.0 °F 25.6 °F 25.7 °F 78% 29.84 in 10.0 mi ESE 6.9 mph - N/A   Overcast
9:54 PM 32.0 °F 24.8 °F 25.2 °F 76% 29.81 in 10.0 mi ESE 8.1 mph - N/A   Overcast
10:14 PM 32.0 °F 24.8 °F 25.2 °F 76% 29.80 in 10.0 mi ESE 8.1 mph - N/A   Overcast
10:34 PM 32.0 °F 25.6 °F 25.7 °F 78% 29.79 in 10.0 mi ESE 6.9 mph - N/A   Overcast
10:54 PM 32.0 °F 24.8 °F 27.3 °F 83% 29.77 in 1.8 mi East 8.1 mph - N/A Snow Light Snow
11:14 PM 31.1 °F 23.7 °F 29.1 °F 92% 29.77 in 0.5 mi ESE 8.1 mph - N/A Snow Snow
11:34 PM 31.1 °F 24.5 °F 29.5 °F 94% 29.76 in 0.8 mi ESE 6.9 mph - N/A Snow Snow
11:54 PM 31.3 °F 25.6 °F 29.7 °F 94% 29.76 in 1.0 mi ESE 5.8 mph - N/A Snow Snow